owner,sensor,date,latitude,longitude,vertical_datum,wind_speed,wind_to_direction,wind_speed_of_gust,qcFlag 
FIT,ioos:station:wmo:SIPF1:1,2013-09-01T00:00:00Z,27.8620,-80.4450,1.0,5.5,230.0,99.0,'11111222,11111222,11144222' 
FIT,ioos:station:wmo:SIPF1:1,2013-09-01T00:15:00Z,27.8620,-80.4450,1.0,4.8,202.0,99.0,'11111222,11111222,11144222' 
FIT,ioos:station:wmo:SIPF1:1,2013-09-01T00:30:00Z,27.8620,-80.4450,1.0,4.3,197.0,99.0,'11111222,11111222,11144222' 
FIT,ioos:station:wmo:SIPF1:1,2013-09-01T00:45:00Z,27.8620,-80.4450,1.0,3.4,215.0,99.0,'11111222,11111222,11144222' 
FIT,ioos:station:wmo:SIPF1:1,2013-09-01T01:00:00Z,27.8620,-80.4450,1.0,4.0,213.0,99.0,'11111222,11111222,11144222' 
FIT,ioos:station:wmo:SIPF1:1,2013-09-01T01:15:00Z,27.8620,-80.4450,1.0,3.9,211.0,99.0,'11111222,11111222,11144222' 
FIT,ioos:station:wmo:SIPF1:1,2013-09-01T01:30:00Z,27.8620,-80.4450,1.0,4.3,230.0,99.0,'11111222,11111222,11144222' 
FIT,ioos:station:wmo:SIPF1:1,2013-09-01T01:45:00Z,27.8620,-80.4450,1.0,3.4,215.0,99.0,'11111222,11111222,11144222' 
FIT,ioos:station:wmo:SIPF1:1,2013-09-01T02:00:00Z,27.8620,-80.4450,1.0,3.7,213.0,99.0,'11111222,11111222,11144222' 
FIT,ioos:station:wmo:SIPF1:1,2013-09-01T02:15:00Z,27.8620,-80.4450,1.0,3.8,221.0,99.0,'11111222,11111222,11144222' 
FIT,ioos:station:wmo:SIPF1:1,2013-09-01T02:30:00Z,27.8620,-80.4450,1.0,3.7,217.0,99.0,'11111222,11111222,11144222' 
FIT,ioos:station:wmo:SIPF1:1,2013-09-01T02:45:00Z,27.8620,-80.4450,1.0,3.9,224.0,99.0,'11111222,11111222,11144222' 
FIT,ioos:station:wmo:SIPF1:1,2013-09-01T03:00:00Z,27.8620,-80.4450,1.0,4.1,222.0,99.0,'11111222,11111222,11144222' 
FIT,ioos:station:wmo:SIPF1:1,2013-09-01T03:15:00Z,27.8620,-80.4450,1.0,2.8,194.0,99.0,'11111222,11111222,11144222' 
FIT,ioos:station:wmo:SIPF1:1,2013-09-01T03:30:00Z,27.8620,-80.4450,1.0,2.2,200.0,99.0,'11111222,11111222,11144222' 
FIT,ioos:station:wmo:SIPF1:1,2013-09-01T03:45:00Z,27.8620,-80.4450,1.0,1.9,217.0,99.0,'11111222,11111222,11144222' 
FIT,ioos:station:wmo:SIPF1:1,2013-09-01T04:00:00Z,27.8620,-80.4450,1.0,2.2,236.0,99.0,'11111222,11111222,11144222' 
FIT,ioos:station:wmo:SIPF1:1,2013-09-01T04:15:00Z,27.8620,-80.4450,1.0,2.7,230.0,99.0,'11111222,11111222,11144222' 
FIT,ioos:station:wmo:SIPF1:1,2013-09-01T04:30:00Z,27.8620,-80.4450,1.0,2.6,218.0,99.0,'11111222,11111222,11144222' 
FIT,ioos:station:wmo:SIPF1:1,2013-09-01T04:45:00Z,27.8620,-80.4450,1.0,2.1,206.0,99.0,'11111222,11111222,11144222' 
FIT,ioos:station:wmo:SIPF1:1,2013-09-01T05:00:00Z,27.8620,-80.4450,1.0,2.7,216.0,99.0,'11111222,11111222,11144222' 
FIT,ioos:station:wmo:SIPF1:1,2013-09-01T05:15:00Z,27.8620,-80.4450,1.0,2.7,216.0,99.0,'11111222,11111222,11144222' 
FIT,ioos:station:wmo:SIPF1:1,2013-09-01T05:30:00Z,27.8620,-80.4450,1.0,3.0,218.0,99.0,'11111222,11111222,11144222' 
FIT,ioos:station:wmo:SIPF1:1,2013-09-01T05:45:00Z,27.8620,-80.4450,1.0,2.7,213.0,99.0,'11111222,11111222,11144222' 
FIT,ioos:station:wmo:SIPF1:1,2013-09-01T06:00:00Z,27.8620,-80.4450,1.0,2.7,211.0,99.0,'11111222,11111222,11144222' 
FIT,ioos:station:wmo:SIPF1:1,2013-09-01T06:15:00Z,27.8620,-80.4450,1.0,3.1,206.0,99.0,'11111222,11111222,11144222' 
FIT,ioos:station:wmo:SIPF1:1,2013-09-01T06:30:00Z,27.8620,-80.4450,1.0,2.8,206.0,99.0,'11111222,11111222,11144222' 
FIT,ioos:station:wmo:SIPF1:1,2013-09-01T06:45:00Z,27.8620,-80.4450,1.0,1.7,215.0,99.0,'11111222,11111222,11144222' 
FIT,ioos:station:wmo:SIPF1:1,2013-09-01T07:00:00Z,27.8620,-80.4450,1.0,2.3,198.0,99.0,'11111222,11111222,11144222' 
FIT,ioos:station:wmo:SIPF1:1,2013-09-01T07:15:00Z,27.8620,-80.4450,1.0,2.4,199.0,99.0,'11111222,11111222,11144222' 
FIT,ioos:station:wmo:SIPF1:1,2013-09-01T07:30:00Z,27.8620,-80.4450,1.0,2.1,205.0,99.0,'11111222,11111222,11144222' 
FIT,ioos:station:wmo:SIPF1:1,2013-09-01T07:45:00Z,27.8620,-80.4450,1.0,2.2,230.0,99.0,'11111222,11111222,11144222' 
FIT,ioos:station:wmo:SIPF1:1,2013-09-01T08:00:00Z,27.8620,-80.4450,1.0,2.2,234.0,99.0,'11111222,11111222,11144222' 
FIT,ioos:station:wmo:SIPF1:1,2013-09-01T08:15:00Z,27.8620,-80.4450,1.0,1.7,209.0,99.0,'11111222,11111222,11144222' 
FIT,ioos:station:wmo:SIPF1:1,2013-09-01T08:30:00Z,27.8620,-80.4450,1.0,1.8,198.0,99.0,'11111222,11111222,11144222' 
FIT,ioos:station:wmo:SIPF1:1,2013-09-01T08:45:00Z,27.8620,-80.4450,1.0,2.0,208.0,99.0,'11111222,11111222,11144222' 
FIT,ioos:station:wmo:SIPF1:1,2013-09-01T09:00:00Z,27.8620,-80.4450,1.0,2.7,213.0,99.0,'11111222,11111222,11144222' 
FIT,ioos:station:wmo:SIPF1:1,2013-09-01T09:15:00Z,27.8620,-80.4450,1.0,3.2,214.0,99.0,'11111222,11111222,11144222' 
FIT,ioos:station:wmo:SIPF1:1,2013-09-01T09:30:00Z,27.8620,-80.4450,1.0,2.8,207.0,99.0,'11111222,11111222,11144222' 
FIT,ioos:station:wmo:SIPF1:1,2013-09-01T09:45:00Z,27.8620,-80.4450,1.0,2.0,221.0,99.0,'11111222,11111222,11144222' 
FIT,ioos:station:wmo:SIPF1:1,2013-09-01T10:00:00Z,27.8620,-80.4450,1.0,1.7,226.0,99.0,'11111222,11111222,11144222' 
FIT,ioos:station:wmo:SIPF1:1,2013-09-01T10:15:00Z,27.8620,-80.4450,1.0,1.9,202.0,99.0,'11111222,11111222,11144222' 
FIT,ioos:station:wmo:SIPF1:1,2013-09-01T10:30:00Z,27.8620,-80.4450,1.0,2.3,198.0,99.0,'11111222,11111222,11144222' 
FIT,ioos:station:wmo:SIPF1:1,2013-09-01T10:45:00Z,27.8620,-80.4450,1.0,2.3,203.0,99.0,'11111222,11111222,11144222' 
FIT,ioos:station:wmo:SIPF1:1,2013-09-01T11:00:00Z,27.8620,-80.4450,1.0,2.6,210.0,99.0,'11111222,11111222,11144222' 
FIT,ioos:station:wmo:SIPF1:1,2013-09-01T11:15:00Z,27.8620,-80.4450,1.0,2.7,203.0,99.0,'11111222,11111222,11144222' 
FIT,ioos:station:wmo:SIPF1:1,2013-09-01T11:30:00Z,27.8620,-80.4450,1.0,3.3,203.0,99.0,'11111222,11111222,11144222' 
FIT,ioos:station:wmo:SIPF1:1,2013-09-01T11:45:00Z,27.8620,-80.4450,1.0,2.7,206.0,99.0,'11111222,11111222,11144222' 
FIT,ioos:station:wmo:SIPF1:1,2013-09-01T12:00:00Z,27.8620,-80.4450,1.0,2.9,197.0,99.0,'11111222,11111222,11144222' 
FIT,ioos:station:wmo:SIPF1:1,2013-09-01T12:15:00Z,27.8620,-80.4450,1.0,3.0,196.0,99.0,'11111222,11111222,11144222' 
FIT,ioos:station:wmo:SIPF1:1,2013-09-01T12:30:00Z,27.8620,-80.4450,1.0,3.4,212.0,99.0,'11111222,11111222,11144222' 
FIT,ioos:station:wmo:SIPF1:1,2013-09-01T12:45:00Z,27.8620,-80.4450,1.0,2.6,248.0,99.0,'11111222,11111222,11144222' 
FIT,ioos:station:wmo:SIPF1:1,2013-09-01T13:00:00Z,27.8620,-80.4450,1.0,1.8,258.0,99.0,'11111222,11111222,11144222' 
FIT,ioos:station:wmo:SIPF1:1,2013-09-01T13:15:00Z,27.8620,-80.4450,1.0,2.3,267.0,99.0,'11111222,11111222,11144222' 
FIT,ioos:station:wmo:SIPF1:1,2013-09-01T13:30:00Z,27.8620,-80.4450,1.0,2.1,254.0,99.0,'11111222,11111222,11144222' 
FIT,ioos:station:wmo:SIPF1:1,2013-09-01T13:45:00Z,27.8620,-80.4450,1.0,1.7,240.0,99.0,'11111222,11111222,11144222' 
FIT,ioos:station:wmo:SIPF1:1,2013-09-01T14:00:00Z,27.8620,-80.4450,1.0,1.9,235.0,99.0,'11111222,11111222,11144222' 
FIT,ioos:station:wmo:SIPF1:1,2013-09-01T14:15:00Z,27.8620,-80.4450,1.0,1.9,239.0,99.0,'11111222,11111222,11144222' 
FIT,ioos:station:wmo:SIPF1:1,2013-09-01T14:30:00Z,27.8620,-80.4450,1.0,2.0,234.0,99.0,'11111222,11111222,11144222' 
FIT,ioos:station:wmo:SIPF1:1,2013-09-01T14:45:00Z,27.8620,-80.4450,1.0,1.7,239.0,99.0,'11111222,11111222,11144222' 
FIT,ioos:station:wmo:SIPF1:1,2013-09-01T15:00:00Z,27.8620,-80.4450,1.0,1.2,260.0,99.0,'11111222,11111222,11144222' 
FIT,ioos:station:wmo:SIPF1:1,2013-09-01T15:15:00Z,27.8620,-80.4450,1.0,1.5,248.0,99.0,'11111222,11111222,11144222' 
FIT,ioos:station:wmo:SIPF1:1,2013-09-01T15:30:00Z,27.8620,-80.4450,1.0,0.9,260.0,99.0,'11111222,11111222,11144222' 
FIT,ioos:station:wmo:SIPF1:1,2013-09-01T15:45:00Z,27.8620,-80.4450,1.0,0.8,209.0,99.0,'11111222,11111222,11144222' 
FIT,ioos:station:wmo:SIPF1:1,2013-09-01T16:00:00Z,27.8620,-80.4450,1.0,1.4,59.0,99.0,'11111222,11111222,11144222' 
FIT,ioos:station:wmo:SIPF1:1,2013-09-01T16:15:00Z,27.8620,-80.4450,1.0,2.7,57.0,99.0,'11111222,11111222,11144222' 
FIT,ioos:station:wmo:SIPF1:1,2013-09-01T16:30:00Z,27.8620,-80.4450,1.0,3.0,65.0,99.0,'11111222,11111222,11144222' 
FIT,ioos:station:wmo:SIPF1:1,2013-09-01T16:45:00Z,27.8620,-80.4450,1.0,3.5,74.0,99.0,'11111222,11111222,11144222' 
FIT,ioos:station:wmo:SIPF1:1,2013-09-01T17:00:00Z,27.8620,-80.4450,1.0,4.0,75.0,99.0,'11111222,11111222,11144222' 
FIT,ioos:station:wmo:SIPF1:1,2013-09-01T17:15:00Z,27.8620,-80.4450,1.0,4.3,91.0,99.0,'11111222,11111222,11144222' 
FIT,ioos:station:wmo:SIPF1:1,2013-09-01T17:30:00Z,27.8620,-80.4450,1.0,4.7,101.0,99.0,'11111222,11111222,11144222' 
FIT,ioos:station:wmo:SIPF1:1,2013-09-01T17:45:00Z,27.8620,-80.4450,1.0,5.2,108.0,99.0,'11111222,11111222,11144222' 
FIT,ioos:station:wmo:SIPF1:1,2013-09-01T18:00:00Z,27.8620,-80.4450,1.0,5.4,108.0,99.0,'11111222,11111222,11144222' 
FIT,ioos:station:wmo:SIPF1:1,2013-09-01T18:15:00Z,27.8620,-80.4450,1.0,5.7,113.0,99.0,'11111222,11111222,11144222' 
FIT,ioos:station:wmo:SIPF1:1,2013-09-01T18:30:00Z,27.8620,-80.4450,1.0,5.9,114.0,99.0,'11111222,11111222,11144222' 
FIT,ioos:station:wmo:SIPF1:1,2013-09-01T18:45:00Z,27.8620,-80.4450,1.0,5.9,116.0,99.0,'11111222,11111222,11144222' 
FIT,ioos:station:wmo:SIPF1:1,2013-09-01T19:00:00Z,27.8620,-80.4450,1.0,5.5,119.0,99.0,'11111222,11111222,11144222' 
FIT,ioos:station:wmo:SIPF1:1,2013-09-01T19:15:00Z,27.8620,-80.4450,1.0,4.8,124.0,99.0,'11111222,11111222,11144222' 
FIT,ioos:station:wmo:SIPF1:1,2013-09-01T19:30:00Z,27.8620,-80.4450,1.0,4.8,130.0,99.0,'11111222,11111222,11144222' 
FIT,ioos:station:wmo:SIPF1:1,2013-09-01T19:45:00Z,27.8620,-80.4450,1.0,4.5,134.0,99.0,'11111222,11111222,11144222' 
FIT,ioos:station:wmo:SIPF1:1,2013-09-01T20:00:00Z,27.8620,-80.4450,1.0,5.1,145.0,99.0,'11111222,11111222,11144222' 
FIT,ioos:station:wmo:SIPF1:1,2013-09-01T20:15:00Z,27.8620,-80.4450,1.0,5.3,157.0,99.0,'11111222,11111222,11144222' 
FIT,ioos:station:wmo:SIPF1:1,2013-09-01T20:30:00Z,27.8620,-80.4450,1.0,6.2,154.0,99.0,'11111222,11111222,11144222' 
FIT,ioos:station:wmo:SIPF1:1,2013-09-01T20:45:00Z,27.8620,-80.4450,1.0,6.9,148.0,99.0,'11111222,11111222,11144222' 
FIT,ioos:station:wmo:SIPF1:1,2013-09-01T21:00:00Z,27.8620,-80.4450,1.0,7.5,150.0,99.0,'11111222,11111222,11144222' 
FIT,ioos:station:wmo:SIPF1:1,2013-09-01T21:15:00Z,27.8620,-80.4450,1.0,7.0,156.0,99.0,'11111222,11111222,11144222' 
FIT,ioos:station:wmo:SIPF1:1,2013-09-01T21:30:00Z,27.8620,-80.4450,1.0,7.6,160.0,99.0,'11111222,11111222,11144222' 
FIT,ioos:station:wmo:SIPF1:1,2013-09-01T21:45:00Z,27.8620,-80.4450,1.0,8.0,166.0,99.0,'11111222,11111222,11144222' 
FIT,ioos:station:wmo:SIPF1:1,2013-09-01T22:00:00Z,27.8620,-80.4450,1.0,6.7,178.0,99.0,'11111222,11111222,11144222' 
FIT,ioos:station:wmo:SIPF1:1,2013-09-01T22:15:00Z,27.8620,-80.4450,1.0,5.8,183.0,99.0,'11111222,11111222,11144222' 
FIT,ioos:station:wmo:SIPF1:1,2013-09-01T22:30:00Z,27.8620,-80.4450,1.0,5.5,184.0,99.0,'11111222,11111222,11144222' 
FIT,ioos:station:wmo:SIPF1:1,2013-09-01T22:45:00Z,27.8620,-80.4450,1.0,4.7,191.0,99.0,'11111222,11111222,11144222' 
FIT,ioos:station:wmo:SIPF1:1,2013-09-01T23:00:00Z,27.8620,-80.4450,1.0,4.8,226.0,99.0,'11111222,11111222,11144222' 
FIT,ioos:station:wmo:SIPF1:1,2013-09-01T23:15:00Z,27.8620,-80.4450,1.0,6.2,250.0,99.0,'11111222,11111222,11144222' 
FIT,ioos:station:wmo:SIPF1:1,2013-09-01T23:30:00Z,27.8620,-80.4450,1.0,4.4,253.0,99.0,'11111222,11111222,11144222' 
FIT,ioos:station:wmo:SIPF1:1,2013-09-01T23:45:00Z,27.8620,-80.4450,1.0,3.4,248.0,99.0,'11111222,11111222,11144222' 
FIT,ioos:station:wmo:SIPF1:1,2013-09-02T00:00:00Z,27.8620,-80.4450,1.0,3.3,248.0,99.0,'11111222,11111222,11144222' 
FIT,ioos:station:wmo:SIPF1:1,2013-09-02T00:15:00Z,27.8620,-80.4450,1.0,3.0,263.0,99.0,'11111222,11111222,11144222' 
FIT,ioos:station:wmo:SIPF1:1,2013-09-02T00:30:00Z,27.8620,-80.4450,1.0,3.0,261.0,99.0,'11111222,11111222,11144222' 
FIT,ioos:station:wmo:SIPF1:1,2013-09-02T00:45:00Z,27.8620,-80.4450,1.0,2.7,262.0,99.0,'11111222,11111222,11144222' 
FIT,ioos:station:wmo:SIPF1:1,2013-09-02T01:00:00Z,27.8620,-80.4450,1.0,2.6,250.0,99.0,'11111222,11111222,11144222' 
FIT,ioos:station:wmo:SIPF1:1,2013-09-02T01:15:00Z,27.8620,-80.4450,1.0,2.6,264.0,99.0,'11111222,11111222,11144222' 
FIT,ioos:station:wmo:SIPF1:1,2013-09-02T01:30:00Z,27.8620,-80.4450,1.0,2.4,269.0,99.0,'11111222,11111222,11144222' 
FIT,ioos:station:wmo:SIPF1:1,2013-09-02T01:45:00Z,27.8620,-80.4450,1.0,2.2,262.0,99.0,'11111222,11111222,11144222' 
FIT,ioos:station:wmo:SIPF1:1,2013-09-02T02:00:00Z,27.8620,-80.4450,1.0,1.8,245.0,99.0,'11111222,11111222,11144222' 
FIT,ioos:station:wmo:SIPF1:1,2013-09-02T02:15:00Z,27.8620,-80.4450,1.0,2.3,228.0,99.0,'11111222,11111222,11144222' 
FIT,ioos:station:wmo:SIPF1:1,2013-09-02T02:30:00Z,27.8620,-80.4450,1.0,2.2,206.0,99.0,'11111222,11111222,11144222' 
FIT,ioos:station:wmo:SIPF1:1,2013-09-02T02:45:00Z,27.8620,-80.4450,1.0,2.2,192.0,99.0,'11111222,11111222,11144222' 
FIT,ioos:station:wmo:SIPF1:1,2013-09-02T03:00:00Z,27.8620,-80.4450,1.0,2.5,192.0,99.0,'11111222,11111222,11144222' 
FIT,ioos:station:wmo:SIPF1:1,2013-09-02T03:15:00Z,27.8620,-80.4450,1.0,2.8,210.0,99.0,'11111222,11111222,11144222' 
FIT,ioos:station:wmo:SIPF1:1,2013-09-02T03:30:00Z,27.8620,-80.4450,1.0,2.5,221.0,99.0,'11111222,11111222,11144222' 
FIT,ioos:station:wmo:SIPF1:1,2013-09-02T03:45:00Z,27.8620,-80.4450,1.0,2.3,219.0,99.0,'11111222,11111222,11144222' 
FIT,ioos:station:wmo:SIPF1:1,2013-09-02T04:00:00Z,27.8620,-80.4450,1.0,2.0,218.0,99.0,'11111222,11111222,11144222' 
FIT,ioos:station:wmo:SIPF1:1,2013-09-02T04:15:00Z,27.8620,-80.4450,1.0,1.5,207.0,99.0,'11111222,11111222,11144222' 
FIT,ioos:station:wmo:SIPF1:1,2013-09-02T04:30:00Z,27.8620,-80.4450,1.0,2.0,226.0,99.0,'11111222,11111222,11144222' 
FIT,ioos:station:wmo:SIPF1:1,2013-09-02T04:45:00Z,27.8620,-80.4450,1.0,1.9,227.0,99.0,'11111222,11111222,11144222' 
FIT,ioos:station:wmo:SIPF1:1,2013-09-02T05:00:00Z,27.8620,-80.4450,1.0,1.9,227.0,99.0,'11111222,11111222,11144222' 
FIT,ioos:station:wmo:SIPF1:1,2013-09-02T05:15:00Z,27.8620,-80.4450,1.0,1.7,217.0,99.0,'11111222,11111222,11144222' 
FIT,ioos:station:wmo:SIPF1:1,2013-09-02T05:30:00Z,27.8620,-80.4450,1.0,1.9,223.0,99.0,'11111222,11111222,11144222' 
FIT,ioos:station:wmo:SIPF1:1,2013-09-02T05:45:00Z,27.8620,-80.4450,1.0,2.3,250.0,99.0,'11111222,11111222,11144222' 
FIT,ioos:station:wmo:SIPF1:1,2013-09-02T06:00:00Z,27.8620,-80.4450,1.0,2.1,255.0,99.0,'11111222,11111222,11144222' 
FIT,ioos:station:wmo:SIPF1:1,2013-09-02T06:15:00Z,27.8620,-80.4450,1.0,1.8,266.0,99.0,'11111222,11111222,11144222' 
FIT,ioos:station:wmo:SIPF1:1,2013-09-02T06:30:00Z,27.8620,-80.4450,1.0,2.0,248.0,99.0,'11111222,11111222,11144222' 
FIT,ioos:station:wmo:SIPF1:1,2013-09-02T06:45:00Z,27.8620,-80.4450,1.0,2.5,244.0,99.0,'11111222,11111222,11144222' 
FIT,ioos:station:wmo:SIPF1:1,2013-09-02T07:00:00Z,27.8620,-80.4450,1.0,2.3,237.0,99.0,'11111222,11111222,11144222' 
FIT,ioos:station:wmo:SIPF1:1,2013-09-02T07:15:00Z,27.8620,-80.4450,1.0,2.0,243.0,99.0,'11111222,11111222,11144222' 
FIT,ioos:station:wmo:SIPF1:1,2013-09-02T07:30:00Z,27.8620,-80.4450,1.0,1.9,221.0,99.0,'11111222,11111222,11144222' 
FIT,ioos:station:wmo:SIPF1:1,2013-09-02T07:45:00Z,27.8620,-80.4450,1.0,1.9,216.0,99.0,'11111222,11111222,11144222' 
FIT,ioos:station:wmo:SIPF1:1,2013-09-02T08:00:00Z,27.8620,-80.4450,1.0,1.4,229.0,99.0,'11111222,11111222,11144222' 
FIT,ioos:station:wmo:SIPF1:1,2013-09-02T08:15:00Z,27.8620,-80.4450,1.0,1.0,266.0,99.0,'11111222,11111222,11144222' 
FIT,ioos:station:wmo:SIPF1:1,2013-09-02T08:30:00Z,27.8620,-80.4450,1.0,1.0,268.0,99.0,'11111222,11111222,11144222' 
FIT,ioos:station:wmo:SIPF1:1,2013-09-02T08:45:00Z,27.8620,-80.4450,1.0,0.9,239.0,99.0,'11111222,11111222,11144222' 
FIT,ioos:station:wmo:SIPF1:1,2013-09-02T09:00:00Z,27.8620,-80.4450,1.0,0.7,226.0,99.0,'11111222,11111222,11144222' 
FIT,ioos:station:wmo:SIPF1:1,2013-09-02T09:15:00Z,27.8620,-80.4450,1.0,1.1,220.0,99.0,'11111222,11111222,11144222' 
FIT,ioos:station:wmo:SIPF1:1,2013-09-02T09:30:00Z,27.8620,-80.4450,1.0,1.6,227.0,99.0,'11111222,11111222,11144222' 
FIT,ioos:station:wmo:SIPF1:1,2013-09-02T09:45:00Z,27.8620,-80.4450,1.0,1.4,218.0,99.0,'11111222,11111222,11144222' 
FIT,ioos:station:wmo:SIPF1:1,2013-09-02T10:00:00Z,27.8620,-80.4450,1.0,1.3,216.0,99.0,'11111222,11111222,11144222' 
FIT,ioos:station:wmo:SIPF1:1,2013-09-02T10:15:00Z,27.8620,-80.4450,1.0,0.8,200.0,99.0,'11111222,11111222,11144222' 
FIT,ioos:station:wmo:SIPF1:1,2013-09-02T10:30:00Z,27.8620,-80.4450,1.0,0.7,258.0,99.0,'11111222,11111222,11144222' 
FIT,ioos:station:wmo:SIPF1:1,2013-09-02T10:45:00Z,27.8620,-80.4450,1.0,0.5,285.0,99.0,'11111222,11111222,11144222' 
FIT,ioos:station:wmo:SIPF1:1,2013-09-02T11:00:00Z,27.8620,-80.4450,1.0,0.9,267.0,99.0,'11111222,11111222,11144222' 
FIT,ioos:station:wmo:SIPF1:1,2013-09-02T11:15:00Z,27.8620,-80.4450,1.0,1.1,272.0,99.0,'11111222,11111222,11144222' 
FIT,ioos:station:wmo:SIPF1:1,2013-09-02T11:30:00Z,27.8620,-80.4450,1.0,1.2,264.0,99.0,'11111222,11111222,11144222' 
FIT,ioos:station:wmo:SIPF1:1,2013-09-02T11:45:00Z,27.8620,-80.4450,1.0,1.4,227.0,99.0,'11111222,11111222,11144222' 
FIT,ioos:station:wmo:SIPF1:1,2013-09-02T12:00:00Z,27.8620,-80.4450,1.0,1.4,218.0,99.0,'11111222,11111222,11144222' 
FIT,ioos:station:wmo:SIPF1:1,2013-09-02T12:15:00Z,27.8620,-80.4450,1.0,1.7,215.0,99.0,'11111222,11111222,11144222' 
FIT,ioos:station:wmo:SIPF1:1,2013-09-02T12:30:00Z,27.8620,-80.4450,1.0,1.8,237.0,99.0,'11111222,11111222,11144222' 
FIT,ioos:station:wmo:SIPF1:1,2013-09-02T12:45:00Z,27.8620,-80.4450,1.0,1.9,237.0,99.0,'11111222,11111222,11144222' 
FIT,ioos:station:wmo:SIPF1:1,2013-09-02T13:00:00Z,27.8620,-80.4450,1.0,1.9,245.0,99.0,'11111222,11111222,11144222' 
FIT,ioos:station:wmo:SIPF1:1,2013-09-02T13:15:00Z,27.8620,-80.4450,1.0,2.0,232.0,99.0,'11111222,11111222,11144222' 
FIT,ioos:station:wmo:SIPF1:1,2013-09-02T13:30:00Z,27.8620,-80.4450,1.0,2.3,197.0,99.0,'11111222,11111222,11144222' 
FIT,ioos:station:wmo:SIPF1:1,2013-09-02T13:45:00Z,27.8620,-80.4450,1.0,2.3,192.0,99.0,'11111222,11111222,11144222' 
FIT,ioos:station:wmo:SIPF1:1,2013-09-02T14:00:00Z,27.8620,-80.4450,1.0,2.1,190.0,99.0,'11111222,11111222,11144222' 
FIT,ioos:station:wmo:SIPF1:1,2013-09-02T14:15:00Z,27.8620,-80.4450,1.0,1.6,222.0,99.0,'11111222,11111222,11144222' 
FIT,ioos:station:wmo:SIPF1:1,2013-09-02T14:30:00Z,27.8620,-80.4450,1.0,1.4,240.0,99.0,'11111222,11111222,11144222' 
FIT,ioos:station:wmo:SIPF1:1,2013-09-02T14:45:00Z,27.8620,-80.4450,1.0,1.6,236.0,99.0,'11111222,11111222,11144222' 
FIT,ioos:station:wmo:SIPF1:1,2013-09-02T15:00:00Z,27.8620,-80.4450,1.0,1.4,229.0,99.0,'11111222,11111222,11144222' 
FIT,ioos:station:wmo:SIPF1:1,2013-09-02T15:15:00Z,27.8620,-80.4450,1.0,1.7,243.0,99.0,'11111222,11111222,11144222' 
FIT,ioos:station:wmo:SIPF1:1,2013-09-02T15:30:00Z,27.8620,-80.4450,1.0,1.9,260.0,99.0,'11111222,11111222,11144222' 
FIT,ioos:station:wmo:SIPF1:1,2013-09-02T15:45:00Z,27.8620,-80.4450,1.0,1.3,271.0,99.0,'11111222,11111222,11144222' 
FIT,ioos:station:wmo:SIPF1:1,2013-09-02T16:00:00Z,27.8620,-80.4450,1.0,1.7,223.0,99.0,'11111222,11111222,11144222' 
FIT,ioos:station:wmo:SIPF1:1,2013-09-02T16:15:00Z,27.8620,-80.4450,1.0,1.6,100.0,99.0,'11111222,11111222,11144222' 
FIT,ioos:station:wmo:SIPF1:1,2013-09-02T16:30:00Z,27.8620,-80.4450,1.0,3.2,86.0,99.0,'11111222,11111222,11144222' 
FIT,ioos:station:wmo:SIPF1:1,2013-09-02T16:45:00Z,27.8620,-80.4450,1.0,3.7,74.0,99.0,'11111222,11111222,11144222' 
FIT,ioos:station:wmo:SIPF1:1,2013-09-02T17:00:00Z,27.8620,-80.4450,1.0,3.7,86.0,99.0,'11111222,11111222,11144222' 
FIT,ioos:station:wmo:SIPF1:1,2013-09-02T17:15:00Z,27.8620,-80.4450,1.0,4.1,94.0,99.0,'11111222,11111222,11144222' 
FIT,ioos:station:wmo:SIPF1:1,2013-09-02T17:30:00Z,27.8620,-80.4450,1.0,4.4,102.0,99.0,'11111222,11111222,11144222' 
FIT,ioos:station:wmo:SIPF1:1,2013-09-02T17:45:00Z,27.8620,-80.4450,1.0,4.4,107.0,99.0,'11111222,11111222,11144222' 
FIT,ioos:station:wmo:SIPF1:1,2013-09-02T18:00:00Z,27.8620,-80.4450,1.0,4.4,108.0,99.0,'11111222,11111222,11144222' 
FIT,ioos:station:wmo:SIPF1:1,2013-09-02T18:15:00Z,27.8620,-80.4450,1.0,4.5,107.0,99.0,'11111222,11111222,11144222' 
FIT,ioos:station:wmo:SIPF1:1,2013-09-02T18:30:00Z,27.8620,-80.4450,1.0,4.2,94.0,99.0,'11111222,11111222,11144222' 
FIT,ioos:station:wmo:SIPF1:1,2013-09-02T18:45:00Z,27.8620,-80.4450,1.0,4.5,99.0,99.0,'11111222,11111222,11144222' 
FIT,ioos:station:wmo:SIPF1:1,2013-09-02T19:00:00Z,27.8620,-80.4450,1.0,4.6,100.0,99.0,'11111222,11111222,11144222' 
FIT,ioos:station:wmo:SIPF1:1,2013-09-02T19:15:00Z,27.8620,-80.4450,1.0,4.5,112.0,99.0,'11111222,11111222,11144222' 
FIT,ioos:station:wmo:SIPF1:1,2013-09-02T19:30:00Z,27.8620,-80.4450,1.0,4.8,113.0,99.0,'11111222,11111222,11144222' 
FIT,ioos:station:wmo:SIPF1:1,2013-09-02T19:45:00Z,27.8620,-80.4450,1.0,5.0,117.0,99.0,'11111222,11111222,11144222' 
FIT,ioos:station:wmo:SIPF1:1,2013-09-02T20:00:00Z,27.8620,-80.4450,1.0,4.9,128.0,99.0,'11111222,11111222,11144222' 
FIT,ioos:station:wmo:SIPF1:1,2013-09-02T20:15:00Z,27.8620,-80.4450,1.0,4.6,137.0,99.0,'11111222,11111222,11144222' 
FIT,ioos:station:wmo:SIPF1:1,2013-09-02T20:30:00Z,27.8620,-80.4450,1.0,5.7,146.0,99.0,'11111222,11111222,11144222' 
FIT,ioos:station:wmo:SIPF1:1,2013-09-02T20:45:00Z,27.8620,-80.4450,1.0,12.2,221.0,99.0,'11111222,11111222,11144222' 
FIT,ioos:station:wmo:SIPF1:1,2013-09-02T21:00:00Z,27.8620,-80.4450,1.0,9.9,209.0,99.0,'11111222,11111222,11144222' 
FIT,ioos:station:wmo:SIPF1:1,2013-09-02T21:15:00Z,27.8620,-80.4450,1.0,5.9,177.0,99.0,'11111222,11111222,11144222' 
FIT,ioos:station:wmo:SIPF1:1,2013-09-02T21:30:00Z,27.8620,-80.4450,1.0,6.8,158.0,99.0,'11111222,11111222,11144222' 
FIT,ioos:station:wmo:SIPF1:1,2013-09-02T21:45:00Z,27.8620,-80.4450,1.0,6.0,159.0,99.0,'11111222,11111222,11144222' 
FIT,ioos:station:wmo:SIPF1:1,2013-09-02T22:00:00Z,27.8620,-80.4450,1.0,2.5,203.0,99.0,'11111222,11111222,11144222' 
FIT,ioos:station:wmo:SIPF1:1,2013-09-02T22:15:00Z,27.8620,-80.4450,1.0,3.1,192.0,99.0,'11111222,11111222,11144222' 
FIT,ioos:station:wmo:SIPF1:1,2013-09-02T22:30:00Z,27.8620,-80.4450,1.0,4.4,204.0,99.0,'11111222,11111222,11144222' 
FIT,ioos:station:wmo:SIPF1:1,2013-09-02T22:45:00Z,27.8620,-80.4450,1.0,4.4,208.0,99.0,'11111222,11111222,11144222' 
FIT,ioos:station:wmo:SIPF1:1,2013-09-02T23:00:00Z,27.8620,-80.4450,1.0,4.0,203.0,99.0,'11111222,11111222,11144222' 
FIT,ioos:station:wmo:SIPF1:1,2013-09-02T23:15:00Z,27.8620,-80.4450,1.0,3.7,206.0,99.0,'11111222,11111222,11144222' 
FIT,ioos:station:wmo:SIPF1:1,2013-09-02T23:30:00Z,27.8620,-80.4450,1.0,3.7,208.0,99.0,'11111222,11111222,11144222' 
FIT,ioos:station:wmo:SIPF1:1,2013-09-02T23:45:00Z,27.8620,-80.4450,1.0,2.7,212.0,99.0,'11111222,11111222,11144222' 
FIT,ioos:station:wmo:SIPF1:1,2013-09-03T00:00:00Z,27.8620,-80.4450,1.0,2.7,239.0,99.0,'11111222,11111222,11144222' 
FIT,ioos:station:wmo:SIPF1:1,2013-09-03T00:15:00Z,27.8620,-80.4450,1.0,2.2,248.0,99.0,'11111222,11111222,11144222' 
FIT,ioos:station:wmo:SIPF1:1,2013-09-03T00:30:00Z,27.8620,-80.4450,1.0,2.4,270.0,99.0,'11111222,11111222,11144222' 
FIT,ioos:station:wmo:SIPF1:1,2013-09-03T00:45:00Z,27.8620,-80.4450,1.0,2.6,304.0,99.0,'11111222,11111222,11144222' 
FIT,ioos:station:wmo:SIPF1:1,2013-09-03T01:00:00Z,27.8620,-80.4450,1.0,1.9,273.0,99.0,'11111222,11111222,11144222' 
FIT,ioos:station:wmo:SIPF1:1,2013-09-03T01:15:00Z,27.8620,-80.4450,1.0,2.0,213.0,99.0,'11111222,11111222,11144222' 
FIT,ioos:station:wmo:SIPF1:1,2013-09-03T01:30:00Z,27.8620,-80.4450,1.0,3.7,189.0,99.0,'11111222,11111222,11144222' 
FIT,ioos:station:wmo:SIPF1:1,2013-09-03T01:45:00Z,27.8620,-80.4450,1.0,4.7,191.0,99.0,'11111222,11111222,11144222' 
FIT,ioos:station:wmo:SIPF1:1,2013-09-03T02:00:00Z,27.8620,-80.4450,1.0,4.5,196.0,99.0,'11111222,11111222,11144222' 
FIT,ioos:station:wmo:SIPF1:1,2013-09-03T02:15:00Z,27.8620,-80.4450,1.0,3.6,199.0,99.0,'11111222,11111222,11144222' 
FIT,ioos:station:wmo:SIPF1:1,2013-09-03T02:30:00Z,27.8620,-80.4450,1.0,3.5,207.0,99.0,'11111222,11111222,11144222' 
FIT,ioos:station:wmo:SIPF1:1,2013-09-03T02:45:00Z,27.8620,-80.4450,1.0,3.8,209.0,99.0,'11111222,11111222,11144222' 
FIT,ioos:station:wmo:SIPF1:1,2013-09-03T03:00:00Z,27.8620,-80.4450,1.0,3.7,213.0,99.0,'11111222,11111222,11144222' 
FIT,ioos:station:wmo:SIPF1:1,2013-09-03T03:15:00Z,27.8620,-80.4450,1.0,4.2,213.0,99.0,'11111222,11111222,11144222' 